N24HL KMIA-KAPA

Flight info

Callsign N24HL
Flight time N/A
Altitude 38000
Route HURCN4 SMELZ Q116 JAWJA BRITS COOUP GLH KOMMA/N0517F400 END EDARE CAARS
Aircraft C750/M-SBDE3FGHRWXY/S

Departure

Time N/A
Airport Miami International Airport (KMIA)

Arrival

Time 2026-04-17 19:43
Airport Centennial Airport (KAPA)
Time Latitude Longitude Altitude Speed Heading
2026-04-17 18:55 36.93725 -99.73650 39747 ft 443 kts 284°
2026-04-17 18:55 36.94956 -99.77188 39752 ft 443 kts 284°
2026-04-17 18:56 36.97415 -99.84267 39772 ft 444 kts 284°
2026-04-17 18:56 36.99880 -99.91379 39747 ft 445 kts 284°
2026-04-17 18:57 37.02338 -99.98489 39762 ft 445 kts 284°
2026-04-17 18:57 37.04775 -100.05554 39763 ft 445 kts 284°
2026-04-17 18:58 37.07239 -100.12723 39768 ft 448 kts 284°
2026-04-17 18:58 37.09702 -100.19889 39787 ft 448 kts 284°
2026-04-17 18:59 37.12166 -100.27092 39781 ft 450 kts 284°
2026-04-17 18:59 37.14629 -100.34294 39790 ft 449 kts 284°
2026-04-17 19:00 37.17084 -100.41503 39797 ft 449 kts 284°
2026-04-17 19:00 37.19535 -100.48710 39804 ft 449 kts 284°
2026-04-17 19:01 37.21967 -100.55883 39806 ft 449 kts 284°
2026-04-17 19:01 37.24425 -100.63158 39832 ft 456 kts 284°
2026-04-17 19:02 37.26911 -100.70509 39823 ft 457 kts 284°
2026-04-17 19:02 37.29373 -100.77831 39826 ft 457 kts 284°
2026-04-17 19:03 37.31842 -100.85180 39829 ft 457 kts 284°
2026-04-17 19:03 37.34306 -100.92539 39829 ft 457 kts 284°
2026-04-17 19:04 37.36765 -100.99897 39831 ft 456 kts 284°
2026-04-17 19:04 37.39218 -101.07258 39825 ft 456 kts 284°
2026-04-17 19:05 37.41670 -101.14636 39827 ft 456 kts 284°
2026-04-17 19:05 37.44120 -101.22034 39824 ft 460 kts 284°
2026-04-17 19:06 37.46581 -101.29460 39884 ft 460 kts 284°
2026-04-17 19:06 37.49042 -101.36929 39894 ft 461 kts 284°
2026-04-17 19:07 37.51500 -101.44393 39901 ft 461 kts 284°
2026-04-17 19:07 37.53935 -101.51813 39891 ft 461 kts 284°
2026-04-17 19:08 37.56381 -101.59285 39908 ft 461 kts 284°
2026-04-17 19:08 37.58818 -101.66747 39918 ft 461 kts 284°
2026-04-17 19:09 37.61260 -101.74246 39915 ft 464 kts 284°
2026-04-17 19:09 37.63702 -101.81761 39914 ft 464 kts 284°
2026-04-17 19:10 37.66142 -101.89294 39892 ft 463 kts 284°
2026-04-17 19:10 37.68575 -101.96824 39873 ft 463 kts 284°
2026-04-17 19:11 37.71009 -102.04375 39863 ft 463 kts 284°
2026-04-17 19:11 37.73421 -102.11882 39832 ft 464 kts 284°
2026-04-17 19:12 37.75845 -102.19439 39836 ft 464 kts 284°
2026-04-17 19:12 37.78264 -102.27008 39837 ft 464 kts 284°
2026-04-17 19:13 37.80675 -102.34567 39833 ft 464 kts 284°
2026-04-17 19:13 37.83071 -102.42099 39843 ft 464 kts 284°
2026-04-17 19:14 37.85477 -102.49684 39838 ft 465 kts 284°
2026-04-17 19:14 37.87878 -102.57274 39838 ft 464 kts 284°
2026-04-17 19:15 37.90273 -102.64865 39838 ft 464 kts 284°
2026-04-17 19:15 37.92665 -102.72465 39837 ft 464 kts 284°
2026-04-17 19:16 37.94650 -102.78790 39843 ft 465 kts 284°
2026-04-17 19:16 37.97043 -102.86438 39927 ft 467 kts 284°
2026-04-17 19:17 38.00034 -102.95265 39895 ft 475 kts 291°
2026-04-17 19:17 38.03196 -103.01133 39880 ft 488 kts 301°
2026-04-17 19:18 38.07861 -103.07414 39879 ft 492 kts 305°
2026-04-17 19:18 38.12566 -103.13696 39904 ft 480 kts 305°
2026-04-17 19:19 38.14814 -103.16656 39897 ft 451 kts 305°
2026-04-17 19:19 38.16930 -103.19461 39500 ft 432 kts 304°
2026-04-17 19:19 38.18982 -103.22241 38466 ft 431 kts 304°
2026-04-17 19:19 38.21042 -103.25027 37144 ft 433 kts 304°
2026-04-17 19:20 38.23123 -103.27794 35837 ft 433 kts 304°
2026-04-17 19:20 38.25210 -103.30564 34527 ft 435 kts 303°
2026-04-17 19:20 38.27309 -103.33389 34129 ft 437 kts 303°
2026-04-17 19:20 38.29415 -103.36224 33565 ft 441 kts 303°
2026-04-17 19:21 38.31524 -103.39046 32982 ft 442 kts 303°
2026-04-17 19:21 38.33627 -103.41865 32394 ft 443 kts 303°
2026-04-17 19:21 38.35755 -103.44730 31798 ft 446 kts 303°
2026-04-17 19:21 38.37892 -103.47610 31194 ft 448 kts 303°
2026-04-17 19:22 38.40046 -103.50510 30607 ft 452 kts 303°
2026-04-17 19:22 38.42209 -103.53421 29993 ft 450 kts 303°
2026-04-17 19:22 38.44354 -103.56306 29361 ft 445 kts 303°
2026-04-17 19:22 38.46469 -103.59163 28778 ft 440 kts 303°
2026-04-17 19:23 38.48557 -103.61992 28202 ft 436 kts 303°
2026-04-17 19:23 38.52761 -103.67486 27052 ft 437 kts 310°
2026-04-17 19:23 38.55288 -103.69706 26515 ft 442 kts 317°
2026-04-17 19:24 38.57874 -103.71806 25929 ft 436 kts 317°
2026-04-17 19:24 38.60411 -103.73895 25355 ft 431 kts 317°
2026-04-17 19:24 38.62907 -103.75975 24786 ft 426 kts 317°
2026-04-17 19:24 38.65386 -103.78029 24228 ft 422 kts 317°
2026-04-17 19:25 38.67846 -103.80055 23697 ft 418 kts 317°
2026-04-17 19:25 38.70280 -103.82065 23106 ft 413 kts 317°
2026-04-17 19:25 38.72650 -103.84032 22570 ft 410 kts 317°
2026-04-17 19:25 38.75035 -103.86014 22066 ft 407 kts 317°
2026-04-17 19:26 38.77387 -103.87958 21512 ft 399 kts 317°
2026-04-17 19:26 38.79712 -103.89890 20983 ft 397 kts 317°
2026-04-17 19:26 38.82011 -103.91808 20465 ft 394 kts 317°
2026-04-17 19:26 38.84309 -103.93718 19980 ft 392 kts 317°
2026-04-17 19:27 38.86595 -103.95618 19468 ft 389 kts 317°
2026-04-17 19:27 38.88852 -103.97498 18957 ft 387 kts 318°
2026-04-17 19:27 38.91103 -103.99378 18450 ft 384 kts 318°
2026-04-17 19:27 38.93342 -104.01246 17926 ft 383 kts 318°
2026-04-17 19:28 38.95572 -104.03107 17480 ft 380 kts 319°
2026-04-17 19:28 38.97765 -104.04942 16956 ft 381 kts 319°
2026-04-17 19:28 38.99959 -104.06821 16452 ft 375 kts 316°
2026-04-17 19:28 39.01735 -104.09150 16014 ft 351 kts 300°
2026-04-17 19:29 39.02890 -104.11716 15999 ft 321 kts 287°
2026-04-17 19:29 39.03578 -104.14438 15916 ft 318 kts 280°
2026-04-17 19:29 39.04194 -104.17188 15923 ft 320 kts 281°
2026-04-17 19:29 39.04843 -104.20014 15822 ft 340 kts 281°
2026-04-17 19:30 39.05510 -104.22950 15559 ft 343 kts 281°
2026-04-17 19:30 39.06182 -104.25920 15263 ft 345 kts 281°
2026-04-17 19:30 39.06850 -104.28886 14962 ft 346 kts 281°
2026-04-17 19:30 39.07501 -104.31750 14660 ft 318 kts 282°
2026-04-17 19:31 39.08092 -104.34350 14389 ft 294 kts 281°
2026-04-17 19:31 39.08645 -104.36832 14133 ft 284 kts 281°
2026-04-17 19:31 39.09185 -104.39272 13931 ft 282 kts 281°
2026-04-17 19:31 39.09727 -104.41697 13928 ft 282 kts 281°
2026-04-17 19:32 39.10272 -104.44135 13932 ft 283 kts 281°
2026-04-17 19:32 39.10815 -104.46571 13936 ft 285 kts 281°
2026-04-17 19:32 39.11361 -104.49032 13938 ft 286 kts 281°
2026-04-17 19:32 39.11908 -104.51490 13954 ft 287 kts 282°
2026-04-17 19:33 39.12463 -104.54003 13939 ft 294 kts 282°
2026-04-17 19:33 39.13026 -104.56526 13940 ft 293 kts 282°
2026-04-17 19:33 39.13586 -104.59046 13935 ft 292 kts 282°
2026-04-17 19:33 39.14140 -104.61562 13928 ft 290 kts 281°
2026-04-17 19:34 39.14691 -104.64056 13830 ft 291 kts 281°
2026-04-17 19:34 39.15241 -104.66543 13396 ft 283 kts 282°
2026-04-17 19:34 39.15777 -104.68944 12967 ft 276 kts 283°
2026-04-17 19:34 39.16333 -104.71316 12555 ft 276 kts 285°
2026-04-17 19:35 39.16887 -104.73635 12159 ft 271 kts 285°
2026-04-17 19:35 39.17642 -104.75846 11752 ft 270 kts 295°
2026-04-17 19:35 39.18492 -104.78000 11362 ft 270 kts 297°
2026-04-17 19:35 39.19331 -104.80171 10962 ft 271 kts 298°
2026-04-17 19:36 39.20421 -104.82105 10494 ft 266 kts 321°
2026-04-17 19:36 39.21974 -104.83266 10132 ft 256 kts 342°
2026-04-17 19:36 39.23700 -104.83600 9755 ft 246 kts 360°
2026-04-17 19:36 39.25405 -104.83649 9402 ft 248 kts 359°
2026-04-17 19:37 39.27140 -104.83713 9028 ft 249 kts 359°
2026-04-17 19:37 39.28839 -104.83782 8932 ft 239 kts 359°
2026-04-17 19:37 39.30539 -104.83862 8926 ft 244 kts 358°
2026-04-17 19:37 39.32230 -104.83944 8937 ft 246 kts 358°
2026-04-17 19:38 39.33965 -104.84019 8936 ft 249 kts 358°
2026-04-17 19:38 39.35672 -104.84098 8933 ft 244 kts 358°
2026-04-17 19:38 39.37406 -104.84180 8827 ft 251 kts 358°
2026-04-17 19:38 39.39126 -104.84258 8683 ft 246 kts 358°
2026-04-17 19:39 39.40839 -104.84337 8473 ft 249 kts 358°
2026-04-17 19:39 39.42501 -104.84414 8269 ft 223 kts 358°
2026-04-17 19:39 39.43983 -104.84486 8067 ft 209 kts 358°
2026-04-17 19:39 39.45448 -104.84550 7915 ft 210 kts 359°
2026-04-17 19:40 39.46866 -104.84614 7836 ft 194 kts 359°
2026-04-17 19:40 39.48090 -104.84672 7544 ft 167 kts 359°
2026-04-17 19:40 39.49225 -104.84725 7312 ft 150 kts 359°
2026-04-17 19:40 39.50153 -104.84773 7088 ft 120 kts
2026-04-17 19:41 39.50933 -104.84797 6890 ft 107 kts
2026-04-17 19:41 39.51696 -104.84836 6753 ft 111 kts
2026-04-17 19:41 39.52463 -104.84873 6605 ft 108 kts
2026-04-17 19:41 39.53204 -104.84910 6414 ft 108 kts
2026-04-17 19:42 39.53965 -104.84943 6240 ft 111 kts
2026-04-17 19:42 39.54753 -104.84979 6063 ft 115 kts
2026-04-17 19:42 39.55548 -104.85018 5895 ft 114 kts
2026-04-17 19:42 39.56279 -104.85042 5833 ft 85 kts 353°
2026-04-17 19:43 39.56714 -104.85070 5836 ft 45 kts 358°
2026-04-17 19:43 39.56989 -104.85081 5844 ft 35 kts 358°
2026-04-17 19:43 39.57200 -104.85073 5849 ft 27 kts
2026-04-17 19:43 39.57344 -104.84990 5852 ft 19 kts 28°
2026-04-17 19:44 39.57442 -104.84963 5850 ft 12 kts
2026-04-17 19:44 39.57547 -104.84967 5847 ft 18 kts 358°
2026-04-17 19:44 39.57696 -104.84973 5847 ft 24 kts 359°
2026-04-17 19:44 39.57739 -104.84952 5847 ft 2 kts 76°
2026-04-17 19:45 39.57741 -104.84914 5845 ft 7 kts 91°
2026-04-17 19:45 39.57717 -104.84900 5845 ft 7 kts 180°
2026-04-17 19:45 39.57639 -104.84897 5845 ft 12 kts 174°
2026-04-17 19:45 39.57640 -104.84860 5844 ft 5 kts 336°
2026-04-17 19:46 39.57655 -104.84861 5844 ft 0 kts 23°